Regional Weather Roundup
Issued by NWS

Home | Current Version | Previous Version | Graphics & Text | Print | Product List | Glossary On
Versions: 1 2 3 4 5 6 7 8 9 10 11 12 13 14 15 16 17 18 19 20 21 22 23 24 25 26 27 28 29 30 31 32 33 34 35 36 37 38 39 40 41 42 43 44 45 46 47 48 49 50
292
ASUS45 KCYS 271810
RWRWY

WYOMING REGIONAL WEATHER ROUNDUP
NATIONAL WEATHER SERVICE CHEYENNE WY
1200 PM MDT MON MAR 27 2017

NOTE:  "FAIR" INDICATES FEW OR NO CLOUDS BELOW 12,000 FEET
WITH NO SIGNIFICANT WEATHER AND/OR OBSTRUCTIONS TO VISIBILITY.

WYZ001-271900-
YELLOWSTONE NATIONAL PARK

CITY           SKY/WX    TMP DP  RH WIND       PRES   REMARKS
LK YELLOWSTONE   N/A     34  27  75 VRB5      29.91S WCI  30
6HR MIN TEMP:  28; 6HR MAX TEMP:  35; 6HR PCP:  0.04;

W YELLOWSTONE  NOT AVBL

$$
WYZ002>013-054>058-071-098>099-271900-
NORTHERN WYOMING

CITY           SKY/WX    TMP DP  RH WIND       PRES   REMARKS
JACKSON        CLOUDY    41  32  70 SW5       29.89F
CODY           FAIR      53  25  33 S10       29.85F
GREYBULL       PTSUNNY   55  27  34 CALM      29.83F
6HR MIN TEMP:  37; 6HR MAX TEMP:  55;

WORLAND        FAIR      53  31  42 S3        29.84F
6HR MIN TEMP:  33; 6HR MAX TEMP:  54;

SHERIDAN       FAIR      57  29  34 VRB6      29.83F
6HR MIN TEMP:  34; 6HR MAX TEMP:  57;

BUFFALO        PTSUNNY   56  30  37 NE7       29.85R
6HR MIN TEMP:  38; 6HR MAX TEMP:  57;

GILLETTE       FAIR      53  33  46 SE7       29.84S
6HR MIN TEMP:  34; 6HR MAX TEMP:  53;

HULETT         FAIR      54  28  37 E8        29.84F
NEWCASTLE      FAIR      54  34  47 S8G17     29.85F

$$
WYZ014>020-022>026-101>103-271900-
CENTRAL WYOMING

CITY           SKY/WX    TMP DP  RH WIND       PRES   REMARKS
BIG PINEY      FAIR      39  27  62 VRB3      29.91F
6HR MIN TEMP:  23; 6HR MAX TEMP:  40;

PINEDALE       FAIR      37  27  65 CALM      29.92F
DUBOIS         CLOUDY    43  21  42 NW14      29.86F
LANDER         FAIR      51  23  33 NE6       29.84F
6HR MIN TEMP:  27; 6HR MAX TEMP:  51;

RIVERTON       FAIR      50  24  36 CALM      29.85F
6HR MIN TEMP:  30; 6HR MAX TEMP:  50;

CASPER         FAIR      53  27  36 SW13      29.85F
6HR MIN TEMP:  33; 6HR MAX TEMP:  53;

DOUGLAS        FAIR      58  23  26 NW17      29.84F
6HR MIN TEMP:  29; 6HR MAX TEMP:  58;


$$
WYZ021-027>030-104>119-271900-
SOUTHERN WYOMING

CITY           SKY/WX    TMP DP  RH WIND       PRES   REMARKS
EVANSTON       PTSUNNY   43  29  57 NE5       29.87F
6HR MIN TEMP:  32; 6HR MAX TEMP:  43; 6HR PCP: TRACE;

KEMMERER         N/A     37  30  75 E5        29.90F WCI  34
FORT BRIDGER   MOCLDY    44  31  60 SE9       29.91F
ROCK SPRINGS   PTSUNNY   49  25  39 CALM      29.89F
6HR MIN TEMP:  34; 6HR MAX TEMP:  50;

DIXON            N/A     51  26  38 W7G16     29.92F
RAWLINS        FAIR      50  19  29 SW8       29.89F
6HR MIN TEMP:  35; 6HR MAX TEMP:  50;

SARATOGA       MOCLDY    46  21  36 W6        29.91F
LARAMIE        CLOUDY    47  23  38 S14       29.91F
6HR MIN TEMP:  26; 6HR MAX TEMP:  47;

CHEYENNE       FAIR      52  29  41 SW10      29.91F
6HR MIN TEMP:  28; 6HR MAX TEMP:  52;

TORRINGTON     FAIR      58  23  26 W17G26    29.85F
6HR MIN TEMP:  24; 6HR MAX TEMP:  60;

PINE BLUFFS    FAIR      57  30  35 S9G17     29.90F

$$




USA.gov is the U.S. government's official web portal to all federal, state and local government web resources and services.